TimeHST,TemperatureF,Dew PointF,Humidity,Sea Level PressureIn,VisibilityMPH,Wind Direction,Wind SpeedMPH,Gust SpeedMPH,PrecipitationIn,Events,Conditions,WindDirDegrees,DateUTC
12:53 AM,72.0,64.0,76,30.04,10.0,Variable,4.6,-,N/A,,Overcast,0,2013-12-14 10:53:00
1:53 AM,69.1,63.0,81,30.02,10.0,Variable,3.5,-,N/A,,Partly Cloudy,0,2013-12-14 11:53:00
2:53 AM,69.1,64.0,84,30.00,10.0,Variable,3.5,-,N/A,,Clear,0,2013-12-14 12:53:00
3:53 AM,68.0,64.9,90,30.00,10.0,Calm,Calm,-,N/A,,Clear,0,2013-12-14 13:53:00
4:53 AM,66.9,64.0,90,29.99,10.0,Calm,Calm,-,N/A,,Clear,0,2013-12-14 14:53:00
5:53 AM,64.9,63.0,93,30.01,10.0,Calm,Calm,-,N/A,,Clear,0,2013-12-14 15:53:00
6:53 AM,64.9,63.0,93,30.02,10.0,Calm,Calm,-,N/A,,Clear,0,2013-12-14 16:53:00
7:53 AM,69.1,64.9,87,30.03,10.0,Calm,Calm,-,N/A,,Clear,0,2013-12-14 17:53:00
8:53 AM,75.0,64.9,71,30.04,10.0,Calm,Calm,-,N/A,,Clear,0,2013-12-14 18:53:00
9:53 AM,75.9,66.0,71,30.04,10.0,Variable,4.6,-,N/A,,Clear,0,2013-12-14 19:53:00
10:53 AM,78.1,64.9,64,30.03,10.0,SSE,8.1,-,N/A,,Clear,150,2013-12-14 20:53:00
11:53 AM,79.0,66.0,64,30.00,10.0,SE,9.2,-,N/A,,Clear,140,2013-12-14 21:53:00
12:53 PM,80.1,66.9,64,29.97,10.0,South,10.4,-,N/A,,Clear,170,2013-12-14 22:53:00
1:53 PM,79.0,68.0,69,29.94,10.0,SSE,11.5,-,N/A,,Clear,150,2013-12-14 23:53:00
2:46 PM,78.8,66.2,65,29.92,10.0,SE,8.1,-,N/A,,Partly Cloudy,140,2013-12-15 00:46:00
2:53 PM,78.1,68.0,71,29.94,10.0,SE,6.9,-,N/A,,Clear,130,2013-12-15 00:53:00
3:53 PM,78.1,64.9,64,29.94,10.0,SE,10.4,-,N/A,,Partly Cloudy,140,2013-12-15 01:53:00
4:53 PM,75.9,66.0,71,29.95,10.0,SE,8.1,-,N/A,,Mostly Cloudy,140,2013-12-15 02:53:00
5:53 PM,73.9,66.0,76,29.96,10.0,ESE,3.5,-,N/A,,Mostly Cloudy,120,2013-12-15 03:53:00
6:53 PM,75.0,66.9,76,29.98,10.0,SE,6.9,-,N/A,,Overcast,140,2013-12-15 04:53:00
7:25 PM,73.4,68.0,83,29.96,10.0,SE,10.4,-,0.00,Rain,Light Rain,140,2013-12-15 05:25:00
7:53 PM,72.0,66.9,84,29.99,10.0,Calm,Calm,-,0.00,,Partly Cloudy,0,2013-12-15 05:53:00
8:53 PM,70.0,66.0,87,30.00,10.0,Calm,Calm,-,N/A,,Clear,0,2013-12-15 06:53:00
9:02 PM,69.8,66.2,88,29.99,10.0,Calm,Calm,-,N/A,,Scattered Clouds,0,2013-12-15 07:02:00
9:53 PM,69.1,66.0,90,30.01,10.0,Calm,Calm,-,N/A,,Partly Cloudy,0,2013-12-15 07:53:00
10:53 PM,69.1,66.0,90,30.00,10.0,Calm,Calm,-,N/A,,Mostly Cloudy,0,2013-12-15 08:53:00
11:53 PM,68.0,66.0,93,29.99,10.0,Calm,Calm,-,N/A,,Mostly Cloudy,0,2013-12-15 09:53:00